Location: Bottens
(46.6171°N, 6.6605°E)
Time: 19:47:42
(UTC+00:00)

Cosmos 2208 Rocket - Pass Details

Date: 20 June 2021
Orbit: 754 x 806 km, 74.0° (Epoch: 23 July)

Event Time Altitude Azimuth Distance (km) Brightness Sun altitude
Exits shadow 01:16:31 24° 182° (S) 1,608 5.1 -16.3°
Maximum altitude 01:19:46 64° 107° (ESE) 891 4.3 -16.0°
Drops below altitude 10° 01:25:10 10° 27° (NNE) 2,396 8.0 -15.6°
Sets 01:27:36 0° 25° (NNE) 3,332 9.2 -15.5°
